BTK6560 WIII-WAFF

Flight info

Callsign BTK6560
Flight time N/A
Altitude 35000
Route EGUKO T9 ELAPA
Aircraft A320/M-SDE3FGHIRWY/LB1

Departure

Time N/A
Airport Soekarno-Hatta International Airport (WIII)

Arrival

Time 2026-04-26 10:03
Airport Mutiara - SIS Al-Jufrie Airport (WAFF)
Time Latitude Longitude Altitude Speed Heading
2026-04-26 08:06 -4.30898 109.66191 34851 ft 452 kts 64°
2026-04-26 08:06 -4.29548 109.69031 34850 ft 452 kts 64°
2026-04-26 08:07 -4.26838 109.74716 34848 ft 452 kts 64°
2026-04-26 08:07 -4.24138 109.80369 34848 ft 452 kts 64°
2026-04-26 08:08 -4.21431 109.86034 34858 ft 450 kts 64°
2026-04-26 08:08 -4.18734 109.91693 34857 ft 449 kts 64°
2026-04-26 08:09 -4.16046 109.97340 34858 ft 449 kts 64°
2026-04-26 08:09 -4.13349 110.02972 34855 ft 448 kts 64°
2026-04-26 08:10 -4.10654 110.08609 34850 ft 448 kts 64°
2026-04-26 08:10 -4.07964 110.14236 34849 ft 448 kts 64°
2026-04-26 08:11 -4.05281 110.19860 34850 ft 447 kts 64°
2026-04-26 08:11 -4.02597 110.25474 34849 ft 447 kts 64°
2026-04-26 08:12 -3.99908 110.31090 34848 ft 447 kts 64°
2026-04-26 08:12 -3.97225 110.36698 34844 ft 446 kts 64°
2026-04-26 08:13 -3.94541 110.42298 34841 ft 446 kts 64°
2026-04-26 08:13 -3.91854 110.47904 34839 ft 447 kts 65°
2026-04-26 08:14 -3.89166 110.53509 34838 ft 447 kts 65°
2026-04-26 08:14 -3.86479 110.59132 34834 ft 447 kts 65°
2026-04-26 08:15 -3.83797 110.64743 34838 ft 447 kts 65°
2026-04-26 08:15 -3.81114 110.70347 34838 ft 447 kts 65°
2026-04-26 08:16 -3.78429 110.75959 34833 ft 447 kts 65°
2026-04-26 08:16 -3.75738 110.81564 34831 ft 446 kts 65°
2026-04-26 08:17 -3.73055 110.87164 34829 ft 446 kts 65°
2026-04-26 08:17 -3.70375 110.92770 34828 ft 446 kts 65°
2026-04-26 08:18 -3.67705 110.98325 34825 ft 446 kts 65°
2026-04-26 08:18 -3.65018 111.03915 34820 ft 445 kts 65°
2026-04-26 08:19 -3.62339 111.09511 34820 ft 445 kts 65°
2026-04-26 08:19 -3.59667 111.15100 34817 ft 446 kts 65°
2026-04-26 08:20 -3.56985 111.20696 34816 ft 446 kts 65°
2026-04-26 08:20 -3.54304 111.26290 34814 ft 446 kts 65°
2026-04-26 08:21 -3.51590 111.31923 34807 ft 446 kts 65°
2026-04-26 08:21 -3.48894 111.37520 34810 ft 446 kts 65°
2026-04-26 08:22 -3.46210 111.43116 34814 ft 447 kts 65°
2026-04-26 08:22 -3.43519 111.48716 34816 ft 447 kts 65°
2026-04-26 08:23 -3.40824 111.54327 34815 ft 447 kts 65°
2026-04-26 08:23 -3.38135 111.59920 34815 ft 447 kts 65°
2026-04-26 08:24 -3.35460 111.65493 34813 ft 446 kts 65°
2026-04-26 08:24 -3.33214 111.70180 34814 ft 446 kts 65°
2026-04-26 08:25 -3.30521 111.75787 34813 ft 447 kts 65°
2026-04-26 08:25 -3.27387 111.82292 34813 ft 447 kts 65°
2026-04-26 08:26 -3.25139 111.86983 34816 ft 446 kts 65°
2026-04-26 08:26 -3.22446 111.92586 34817 ft 446 kts 65°
2026-04-26 08:27 -3.19750 111.98177 34814 ft 446 kts 65°
2026-04-26 08:27 -3.17060 112.03777 34814 ft 446 kts 65°
2026-04-26 08:28 -3.14374 112.09367 34813 ft 446 kts 65°
2026-04-26 08:28 -3.11684 112.14960 34813 ft 446 kts 65°
2026-04-26 08:29 -3.08989 112.20543 34808 ft 446 kts 65°
2026-04-26 08:29 -3.06293 112.26135 34808 ft 446 kts 65°
2026-04-26 08:30 -3.03628 112.31729 34806 ft 446 kts 66°
2026-04-26 08:30 -3.01272 112.37418 34805 ft 445 kts 70°
2026-04-26 08:31 -2.99094 112.43214 34803 ft 445 kts 70°
2026-04-26 08:31 -2.96865 112.49034 34807 ft 445 kts 69°
2026-04-26 08:32 -2.94590 112.54793 34801 ft 445 kts 69°
2026-04-26 08:32 -2.92312 112.60511 34801 ft 445 kts 69°
2026-04-26 08:33 -2.90027 112.66270 34797 ft 445 kts 69°
2026-04-26 08:33 -2.87733 112.72061 34797 ft 445 kts 69°
2026-04-26 08:34 -2.85472 112.77787 34800 ft 445 kts 69°
2026-04-26 08:34 -2.83179 112.83584 34798 ft 445 kts 69°
2026-04-26 08:35 -2.80917 112.89308 34797 ft 445 kts 69°
2026-04-26 08:35 -2.78638 112.95067 34801 ft 445 kts 69°
2026-04-26 08:36 -2.76362 113.00825 34798 ft 445 kts 69°
2026-04-26 08:36 -2.74087 113.06581 34798 ft 445 kts 69°
2026-04-26 08:37 -2.71803 113.12336 34799 ft 445 kts 70°
2026-04-26 08:37 -2.69524 113.18095 34796 ft 445 kts 70°
2026-04-26 08:38 -2.67242 113.23857 34789 ft 445 kts 70°
2026-04-26 08:38 -2.64960 113.29614 34781 ft 445 kts 70°
2026-04-26 08:39 -2.62681 113.35367 34785 ft 445 kts 70°
2026-04-26 08:39 -2.60252 113.41063 34780 ft 447 kts 62°
2026-04-26 08:40 -2.56872 113.46293 34772 ft 448 kts 58°
2026-04-26 08:40 -2.53441 113.51512 34762 ft 449 kts 58°
2026-04-26 08:41 -2.50014 113.56739 34763 ft 450 kts 58°
2026-04-26 08:41 -2.46582 113.61973 34768 ft 450 kts 58°
2026-04-26 08:42 -2.43142 113.67212 34769 ft 450 kts 58°
2026-04-26 08:42 -2.39705 113.72427 34776 ft 449 kts 58°
2026-04-26 08:43 -2.36269 113.77644 34780 ft 449 kts 58°
2026-04-26 08:43 -2.32843 113.82855 34777 ft 448 kts 58°
2026-04-26 08:44 -2.29415 113.88073 34770 ft 448 kts 58°
2026-04-26 08:44 -2.25992 113.93278 34768 ft 448 kts 58°
2026-04-26 08:45 -2.23163 113.98777 34766 ft 446 kts 68°
2026-04-26 08:45 -2.20682 114.04464 34763 ft 446 kts 68°
2026-04-26 08:46 -2.18192 114.10144 34762 ft 446 kts 68°
2026-04-26 08:46 -2.15692 114.15824 34760 ft 446 kts 68°
2026-04-26 08:47 -2.13197 114.21500 34766 ft 447 kts 68°
2026-04-26 08:47 -2.10703 114.27197 34769 ft 447 kts 68°
2026-04-26 08:48 -2.08207 114.32886 34768 ft 446 kts 68°
2026-04-26 08:48 -2.05709 114.38566 34767 ft 446 kts 68°
2026-04-26 08:49 -2.03216 114.44239 34764 ft 446 kts 68°
2026-04-26 08:49 -2.00724 114.49915 34763 ft 446 kts 68°
2026-04-26 08:50 -1.98226 114.55594 34765 ft 446 kts 68°
2026-04-26 08:50 -1.95724 114.61272 34765 ft 446 kts 67°
2026-04-26 08:51 -1.91971 114.69799 34771 ft 447 kts 68°
2026-04-26 08:52 -1.89476 114.75482 34765 ft 447 kts 68°
2026-04-26 08:52 -1.86979 114.81174 34772 ft 447 kts 68°
2026-04-26 08:53 -1.84476 114.86862 34777 ft 447 kts 68°
2026-04-26 08:53 -1.81974 114.92555 34779 ft 447 kts 68°
2026-04-26 08:54 -1.79470 114.98250 34783 ft 447 kts 68°
2026-04-26 08:54 -1.76969 115.03940 34782 ft 448 kts 67°
2026-04-26 08:55 -1.74459 115.09647 34773 ft 449 kts 67°
2026-04-26 08:55 -1.71941 115.15362 34778 ft 450 kts 68°
2026-04-26 08:56 -1.69413 115.21091 34778 ft 450 kts 68°
2026-04-26 08:56 -1.66945 115.26839 34785 ft 450 kts 69°
2026-04-26 08:57 -1.64586 115.32646 34796 ft 450 kts 69°
2026-04-26 08:57 -1.62247 115.38455 34791 ft 451 kts 69°
2026-04-26 08:58 -1.59872 115.44263 34798 ft 451 kts 69°
2026-04-26 08:58 -1.57481 115.50053 34799 ft 451 kts 69°
2026-04-26 08:59 -1.55091 115.55852 34809 ft 451 kts 69°
2026-04-26 08:59 -1.52709 115.61662 34811 ft 451 kts 69°
2026-04-26 09:00 -1.50334 115.67458 34813 ft 450 kts 69°
2026-04-26 09:00 -1.47969 115.73234 34823 ft 449 kts 69°
2026-04-26 09:01 -1.45603 115.78993 34826 ft 448 kts 69°
2026-04-26 09:01 -1.43233 115.84745 34823 ft 447 kts 69°
2026-04-26 09:02 -1.40875 115.90481 34820 ft 446 kts 69°
2026-04-26 09:02 -1.38521 115.96216 34820 ft 446 kts 69°
2026-04-26 09:03 -1.36168 116.01943 34821 ft 444 kts 69°
2026-04-26 09:03 -1.33824 116.07651 34820 ft 444 kts 69°
2026-04-26 09:04 -1.31482 116.13344 34812 ft 443 kts 69°
2026-04-26 09:04 -1.29141 116.19044 34809 ft 442 kts 69°
2026-04-26 09:05 -1.26807 116.24721 34805 ft 442 kts 69°
2026-04-26 09:05 -1.24467 116.30416 34801 ft 442 kts 69°
2026-04-26 09:06 -1.22129 116.36094 34799 ft 443 kts 69°
2026-04-26 09:06 -1.19784 116.41784 34796 ft 442 kts 69°
2026-04-26 09:07 -1.17440 116.47477 34792 ft 442 kts 69°
2026-04-26 09:07 -1.15501 116.52202 34789 ft 443 kts 69°
2026-04-26 09:08 -1.13167 116.57888 34789 ft 442 kts 69°
2026-04-26 09:08 -1.10833 116.63571 34787 ft 442 kts 69°
2026-04-26 09:09 -1.08501 116.69252 34789 ft 442 kts 69°
2026-04-26 09:09 -1.06167 116.74928 34787 ft 442 kts 69°
2026-04-26 09:10 -1.03825 116.80612 34790 ft 442 kts 69°
2026-04-26 09:10 -1.01489 116.86291 34789 ft 443 kts 69°
2026-04-26 09:11 -0.99149 116.91977 34791 ft 442 kts 69°
2026-04-26 09:11 -0.96810 116.97669 34799 ft 442 kts 69°
2026-04-26 09:12 -0.94478 117.03339 34805 ft 441 kts 69°
2026-04-26 09:12 -0.92149 117.09010 34803 ft 441 kts 69°
2026-04-26 09:13 -0.89821 117.14674 34802 ft 441 kts 69°
2026-04-26 09:13 -0.87492 117.20333 34803 ft 440 kts 69°
2026-04-26 09:14 -0.85163 117.25996 34807 ft 440 kts 69°
2026-04-26 09:14 -0.82842 117.31661 34809 ft 440 kts 69°
2026-04-26 09:15 -0.80518 117.37321 34811 ft 440 kts 69°
2026-04-26 09:15 -0.78191 117.42978 34813 ft 440 kts 69°
2026-04-26 09:16 -0.75860 117.48647 34815 ft 441 kts 69°
2026-04-26 09:16 -0.73534 117.54310 34809 ft 441 kts 69°
2026-04-26 09:17 -0.71204 117.59983 34817 ft 442 kts 69°
2026-04-26 09:17 -0.68869 117.65661 34818 ft 442 kts 69°
2026-04-26 09:18 -0.66527 117.71351 34818 ft 443 kts 69°
2026-04-26 09:18 -0.64190 117.77042 34824 ft 443 kts 69°
2026-04-26 09:19 -0.61849 117.82738 34824 ft 443 kts 69°
2026-04-26 09:19 -0.59511 117.88428 34834 ft 443 kts 69°
2026-04-26 09:20 -0.57170 117.94125 34833 ft 443 kts 69°
2026-04-26 09:20 -0.54829 117.99817 34834 ft 443 kts 69°
2026-04-26 09:21 -0.52483 118.05517 34836 ft 443 kts 69°
2026-04-26 09:21 -0.50139 118.11217 34837 ft 443 kts 69°
2026-04-26 09:22 -0.47798 118.16917 34834 ft 443 kts 69°
2026-04-26 09:22 -0.45463 118.22609 34832 ft 443 kts 70°
2026-04-26 09:23 -0.43119 118.28297 34831 ft 443 kts 69°
2026-04-26 09:23 -0.40768 118.33991 34831 ft 443 kts 69°
2026-04-26 09:24 -0.38432 118.39683 34830 ft 442 kts 69°
2026-04-26 09:24 -0.36291 118.45425 34826 ft 440 kts 78°
2026-04-26 09:25 -0.35001 118.51396 34827 ft 440 kts 79°
2026-04-26 09:25 -0.33686 118.57356 34827 ft 440 kts 79°
2026-04-26 09:26 -0.32374 118.63338 34824 ft 441 kts 79°
2026-04-26 09:26 -0.31064 118.69323 34824 ft 441 kts 79°
2026-04-26 09:27 -0.29749 118.75305 34821 ft 441 kts 79°
2026-04-26 09:27 -0.28443 118.81304 34820 ft 441 kts 79°
2026-04-26 09:28 -0.27145 118.87297 34821 ft 442 kts 79°
2026-04-26 09:28 -0.25835 118.93290 34823 ft 442 kts 79°
2026-04-26 09:29 -0.24519 118.99289 34824 ft 442 kts 79°
2026-04-26 09:29 -0.23205 119.05290 34829 ft 442 kts 79°
2026-04-26 09:30 -0.21896 119.11289 34833 ft 442 kts 79°
2026-04-26 09:30 -0.20572 119.17337 34835 ft 442 kts 79°
2026-04-26 09:31 -0.19253 119.23348 34709 ft 443 kts 79°
2026-04-26 09:31 -0.18595 119.26348 34476 ft 440 kts 79°
2026-04-26 09:31 -0.17953 119.29298 34289 ft 428 kts 79°
2026-04-26 09:31 -0.17327 119.32167 33969 ft 420 kts 79°
2026-04-26 09:32 -0.16705 119.35032 32803 ft 429 kts 79°
2026-04-26 09:32 -0.16059 119.38022 31206 ft 450 kts 79°
2026-04-26 09:32 -0.15390 119.41098 30359 ft 453 kts 79°
2026-04-26 09:32 -0.14721 119.44142 29807 ft 446 kts 78°
2026-04-26 09:33 -0.14058 119.47152 29117 ft 442 kts 78°
2026-04-26 09:33 -0.13404 119.50131 28502 ft 436 kts 78°
2026-04-26 09:33 -0.12924 119.53102 27892 ft 430 kts 87°
2026-04-26 09:33 -0.12975 119.56061 27283 ft 426 kts 97°
2026-04-26 09:34 -0.13549 119.58946 26660 ft 423 kts 107°
2026-04-26 09:34 -0.14549 119.61703 26055 ft 420 kts 110°
2026-04-26 09:34 -0.15590 119.64411 25450 ft 418 kts 110°
2026-04-26 09:34 -0.16628 119.67123 24846 ft 416 kts 110°
2026-04-26 09:35 -0.17654 119.69812 24263 ft 414 kts 110°
2026-04-26 09:35 -0.18677 119.72494 23687 ft 412 kts 110°
2026-04-26 09:35 -0.19694 119.75163 23079 ft 410 kts 110°
2026-04-26 09:35 -0.20701 119.77813 22522 ft 406 kts 110°
2026-04-26 09:36 -0.21691 119.80406 22343 ft 394 kts 110°
2026-04-26 09:36 -0.22649 119.82921 22201 ft 381 kts 110°
2026-04-26 09:36 -0.23574 119.85355 22078 ft 366 kts 110°
2026-04-26 09:36 -0.24461 119.87680 21614 ft 353 kts 110°
2026-04-26 09:37 -0.25331 119.89957 20925 ft 348 kts 110°
2026-04-26 09:37 -0.26187 119.92194 20226 ft 344 kts 110°
2026-04-26 09:37 -0.27038 119.94417 19549 ft 340 kts 110°
2026-04-26 09:37 -0.27915 119.96594 18950 ft 335 kts 116°
2026-04-26 09:38 -0.29165 119.98526 18497 ft 327 kts 129°
2026-04-26 09:38 -0.30791 120.00078 18029 ft 321 kts 142°
2026-04-26 09:38 -0.32693 120.01204 17511 ft 315 kts 155°
2026-04-26 09:38 -0.34677 120.02071 17091 ft 307 kts 155°
2026-04-26 09:39 -0.36586 120.02906 16824 ft 293 kts 155°
2026-04-26 09:39 -0.38435 120.03715 16379 ft 287 kts 155°
2026-04-26 09:39 -0.40276 120.04461 15884 ft 285 kts 165°
2026-04-26 09:39 -0.42237 120.04618 15364 ft 286 kts 187°
2026-04-26 09:40 -0.44120 120.04015 14885 ft 286 kts 209°
2026-04-26 09:40 -0.45643 120.02755 14468 ft 285 kts 232°
2026-04-26 09:40 -0.46616 120.01037 14058 ft 285 kts 246°
2026-04-26 09:40 -0.47410 119.99219 13632 ft 287 kts 246°
2026-04-26 09:41 -0.48223 119.97401 13337 ft 282 kts 245°
2026-04-26 09:41 -0.49015 119.95648 13206 ft 272 kts 245°
2026-04-26 09:41 -0.49778 119.93966 13067 ft 259 kts 245°
2026-04-26 09:41 -0.50481 119.92414 12885 ft 244 kts 245°
2026-04-26 09:42 -0.51170 119.90890 12494 ft 238 kts 245°
2026-04-26 09:42 -0.51849 119.89387 12077 ft 236 kts 245°
2026-04-26 09:42 -0.52520 119.87898 11651 ft 235 kts 245°
2026-04-26 09:42 -0.53187 119.86415 11222 ft 233 kts 245°
2026-04-26 09:43 -0.53850 119.84943 10821 ft 232 kts 245°
2026-04-26 09:43 -0.54510 119.83481 10434 ft 230 kts 245°
2026-04-26 09:43 -0.55165 119.82026 10023 ft 229 kts 245°
2026-04-26 09:43 -0.55835 119.80531 9235 ft 245 kts 245°
2026-04-26 09:44 -0.56577 119.78949 8519 ft 253 kts 237°
2026-04-26 09:44 -0.57746 119.77714 8170 ft 241 kts 210°
2026-04-26 09:44 -0.59272 119.77127 7799 ft 231 kts 185°
2026-04-26 09:44 -0.60825 119.77227 7460 ft 221 kts 160°
2026-04-26 09:45 -0.62195 119.77800 7130 ft 214 kts 154°
2026-04-26 09:45 -0.63535 119.78398 6807 ft 208 kts 154°
2026-04-26 09:45 -0.64848 119.78979 6484 ft 205 kts 154°
2026-04-26 09:45 -0.66155 119.79556 6161 ft 204 kts 154°
2026-04-26 09:46 -0.67446 119.80127 5854 ft 204 kts 154°
2026-04-26 09:46 -0.68301 119.80506 5668 ft 203 kts 154°
2026-04-26 09:46 -0.69596 119.81082 5335 ft 203 kts 154°
2026-04-26 09:46 -0.70884 119.81653 4997 ft 202 kts 154°
2026-04-26 09:47 -0.72587 119.82410 4582 ft 199 kts 154°
2026-04-26 09:47 -0.73847 119.82970 4280 ft 197 kts 154°
2026-04-26 09:47 -0.74669 119.83336 4091 ft 195 kts 155°
2026-04-26 09:47 -0.75899 119.83883 3806 ft 192 kts 154°
2026-04-26 09:48 -0.77113 119.84423 3515 ft 190 kts 155°
2026-04-26 09:48 -0.78313 119.84956 3246 ft 188 kts 154°
2026-04-26 09:48 -0.79502 119.85485 2963 ft 186 kts 155°
2026-04-26 09:48 -0.80684 119.86008 2699 ft 184 kts 155°
2026-04-26 09:49 -0.81849 119.86525 2431 ft 182 kts 155°
2026-04-26 09:49 -0.82986 119.87031 2155 ft 175 kts 155°
2026-04-26 09:49 -0.84050 119.87501 1925 ft 160 kts 155°
2026-04-26 09:49 -0.85035 119.87938 1693 ft 151 kts 155°
2026-04-26 09:50 -0.85983 119.88360 1460 ft 148 kts 156°
2026-04-26 09:50 -0.86921 119.88776 1249 ft 147 kts 156°
2026-04-26 09:50 -0.87855 119.89190 1017 ft 147 kts 156°
2026-04-26 09:50 -0.88789 119.89604 795 ft 147 kts 156°
2026-04-26 09:51 -0.89719 119.90009 576 ft 145 kts 156°
2026-04-26 09:51 -0.90637 119.90420 375 ft 144 kts 156°
2026-04-26 09:51 -0.91596 119.90842 379 ft 167 kts 156°
2026-04-26 09:51 -0.92740 119.91346 928 ft 186 kts 156°
2026-04-26 09:52 -0.93963 119.91785 1521 ft 188 kts 175°
2026-04-26 09:52 -0.95721 119.90192 2484 ft 198 kts 271°
2026-04-26 09:52 -0.95201 119.88950 3024 ft 200 kts 318°
2026-04-26 09:53 -0.93959 119.88380 3546 ft 199 kts 350°
2026-04-26 09:53 -0.92588 119.88161 4087 ft 202 kts 352°
2026-04-26 09:53 -0.91129 119.87940 4382 ft 220 kts 353°
2026-04-26 09:53 -0.89619 119.87715 4895 ft 221 kts 353°
2026-04-26 09:54 -0.88091 119.87492 5001 ft 221 kts 354°
2026-04-26 09:54 -0.86570 119.87272 5024 ft 221 kts 353°
2026-04-26 09:54 -0.85055 119.87054 5031 ft 221 kts 354°
2026-04-26 09:54 -0.83538 119.86813 5024 ft 221 kts 347°
2026-04-26 09:55 -0.82229 119.86031 5030 ft 224 kts 312°
2026-04-26 09:55 -0.81393 119.84708 5026 ft 226 kts 300°
2026-04-26 09:55 -0.80639 119.83336 5028 ft 226 kts 300°
2026-04-26 09:55 -0.79886 119.81960 5010 ft 226 kts 300°
2026-04-26 09:56 -0.79126 119.80576 5003 ft 227 kts 300°
2026-04-26 09:56 -0.78363 119.79196 5012 ft 227 kts 300°
2026-04-26 09:56 -0.77594 119.77818 5007 ft 227 kts 303°
2026-04-26 09:56 -0.76477 119.76694 5001 ft 232 kts 331°
2026-04-26 09:57 -0.74993 119.76234 4946 ft 218 kts
2026-04-26 09:57 -0.73558 119.76503 4799 ft 207 kts 27°
2026-04-26 09:57 -0.72433 119.77349 4653 ft 202 kts 52°
2026-04-26 09:57 -0.71787 119.78566 4408 ft 198 kts 76°
2026-04-26 09:58 -0.71721 119.79933 4094 ft 198 kts 100°
2026-04-26 09:58 -0.72193 119.81222 3787 ft 198 kts 115°
2026-04-26 09:58 -0.72983 119.82343 3513 ft 198 kts 136°
2026-04-26 09:58 -0.74142 119.83104 3398 ft 202 kts 155°
2026-04-26 09:59 -0.75424 119.83665 3288 ft 202 kts 155°
2026-04-26 09:59 -0.76706 119.84234 3147 ft 201 kts 155°
2026-04-26 09:59 -0.77960 119.84791 2926 ft 194 kts 155°
2026-04-26 09:59 -0.79174 119.85329 2678 ft 189 kts 155°
2026-04-26 10:00 -0.80362 119.85857 2445 ft 184 kts 155°
2026-04-26 10:00 -0.81501 119.86362 2196 ft 173 kts 155°
2026-04-26 10:00 -0.82544 119.86825 1997 ft 157 kts 155°
2026-04-26 10:00 -0.83515 119.87256 1804 ft 150 kts 155°
2026-04-26 10:01 -0.84456 119.87676 1618 ft 147 kts 156°
2026-04-26 10:01 -0.85387 119.88091 1420 ft 146 kts 156°
2026-04-26 10:01 -0.86313 119.88502 1221 ft 146 kts 156°
2026-04-26 10:01 -0.87240 119.88913 1028 ft 145 kts 156°
2026-04-26 10:02 -0.88162 119.89323 825 ft 145 kts 156°
2026-04-26 10:02 -0.89085 119.89722 611 ft 144 kts 156°
2026-04-26 10:02 -0.89999 119.90129 409 ft 143 kts 155°
2026-04-26 10:02 -0.90902 119.90538 227 ft 141 kts 155°
2026-04-26 10:03 -0.91636 119.90868 231 ft 76 kts 156°
2026-04-26 10:03 -0.91836 119.90957 231 ft 5 kts 165°
2026-04-26 10:03 -0.91863 119.90947 231 ft 4 kts 219°
2026-04-26 10:03 -0.91874 119.90927 230 ft 3 kts 240°
2026-04-26 10:04 -0.91887 119.90902 230 ft 5 kts 246°
2026-04-26 10:04 -0.91902 119.90866 230 ft 6 kts 246°
2026-04-26 10:04 -0.91919 119.90828 229 ft 6 kts 251°
2026-04-26 10:04 -0.91903 119.90800 231 ft 4 kts 311°
2026-04-26 10:05 -0.91857 119.90780 230 ft 8 kts 335°
2026-04-26 10:05 -0.91807 119.90757 229 ft 7 kts 336°
2026-04-26 10:05 -0.91795 119.90725 229 ft 5 kts 240°
2026-04-26 10:05 -0.91800 119.90717 229 ft 1 kts 238°
2026-04-26 10:06 -0.91807 119.90702 229 ft 3 kts 245°
2026-04-26 10:06 -0.91811 119.90694 229 ft 0 kts 245°
2026-04-26 10:06 -0.91811 119.90693 229 ft 0 kts 244°